[[{"header":{"parameterUnit":"m.s-1","parameterCategory":1,"la1":30.2992,"la2":30.254,"lo1":-89.0895,"lo2":-89.0443,"dy":0.0025,"dx":0.0025,"nx":19,"ny":19,"refTime":"2026-05-04T03:00:00:Z","depth":0,"parameterNumber":2,"parameterNumberName":"U-component_of_WINDS"},"data":[0,0,0,-0.6082,-0.6082,-0.6089,-0.6089,-0.6095,-0.6095,0,0,0,0,0,0,0,0,0,0,0,-0.6076,-0.6076,-0.6081,-0.6082,-0.6089,-0.6089,-0.6095,-0.6095,0,0,0,0,0,0,0,0,0,0,0,-0.6076,-0.6076,-0.6075,-0.6082,-0.6089,-0.6089,-0.6095,-0.6091,0,0,0,0,0,0,0,0,0,0,-0.6084,-0.6075,-0.6076,-0.6075,-0.6082,-0.6089,-0.6089,-0.6091,-0.6091,-0.609,0,-0.6086,0,-0.6091,-0.6095,-0.6095,0,0,0,-0.6084,-0.6075,-0.608,-0.6075,-0.6082,-0.6089,-0.6087,-0.6091,-0.6092,-0.609,-0.6087,-0.6087,-0.6091,-0.6095,-0.6095,-0.6075,-0.6075,0,0,-0.6084,-0.6075,-0.608,-0.608,-0.6078,-0.6086,-0.6087,-0.6092,-0.6087,-0.6087,-0.6087,-0.6091,-0.6095,-0.6095,-0.6075,-0.6075,0,0,0,-0.6081,-0.6075,-0.608,-0.608,-0.6081,-0.6087,-0.6087,-0.6087,-0.609,-0.6087,-0.6091,-0.6095,-0.6095,-0.6075,-0.6075,-0.6055,0,0,0,-0.6081,-0.6073,-0.608,-0.6075,-0.6081,-0.6084,-0.6082,-0.6089,-0.609,-0.6091,-0.6095,-0.6095,-0.6076,-0.6075,-0.6056,-0.6047,0,0,0,-0.6076,-0.6073,-0.6072,-0.6074,-0.6077,-0.6084,-0.6087,-0.609,-0.6092,-0.6095,-0.6095,-0.6076,-0.6075,-0.6057,-0.6049,-0.6039,0,0,0,-0.6069,-0.6055,-0.6072,-0.6057,-0.6077,-0.6072,-0.6087,-0.6084,-0.6084,-0.6095,-0.6076,-0.6075,-0.6058,-0.605,-0.604,-0.603,-0.6024,0,0,-0.6046,-0.6051,-0.6044,-0.6059,-0.6049,-0.6071,-0.6058,-0.6067,-0.6076,-0.6075,-0.6075,-0.6056,-0.6049,-0.604,-0.5998,-0.5994,0,0,0,-0.6033,-0.6027,-0.6027,-0.6026,-0.6032,-0.6037,-0.6049,-0.6052,-0.6052,-0.6073,-0.605,-0.6047,-0.6041,-0.6037,-0.6033,-0.603,-0.6073,-0.6073,-0.6073,-0.5987,-0.5999,-0.5987,-0.6,-0.6,-0.6012,-0.6013,-0.602,-0.6032,-0.6027,-0.6026,-0.6,-0.5994,-0.5991,-0.5987,-0.6022,-0.6022,-0.6022,-0.6022,-0.5954,-0.5948,-0.5965,-0.5959,-0.5972,-0.5967,-0.598,-0.5988,-0.5987,-0.6001,-0.5997,-0.6011,-0.5986,-0.5983,-0.602,-0.6021,-0.6021,-0.6021,-0.6021,-0.5925,-0.5924,-0.5929,-0.593,-0.593,-0.5944,-0.5942,-0.5954,-0.5966,-0.5962,-0.5963,-0.5963,-0.5965,-0.5962,-0.5961,-0.5961,-0.5961,-0.5961,-0.5961,-0.5893,-0.5899,-0.5895,-0.5901,-0.5903,-0.5907,-0.5921,-0.5923,-0.5929,-0.5938,-0.5938,-0.5951,-0.5982,-0.5989,-0.596,-0.596,-0.596,-0.596,-0.596,-0.5855,-0.5866,-0.586,-0.5861,-0.587,-0.587,-0.5886,-0.589,-0.5894,-0.5893,-0.5907,-0.5927,-0.5934,-0.5937,-0.5943,-0.5904,-0.5904,-0.5904,-0.5904,-0.583,-0.5835,-0.5832,-0.5834,-0.5838,-0.5852,-0.5846,-0.5857,-0.587,-0.5874,-0.5881,-0.5891,-0.5893,-0.5898,-0.5902,-0.5908,-0.5861,-0.5861,-0.5861,-0.5808,-0.5813,-0.5805,-0.5818,-0.5826,-0.5833,-0.5828,-0.5831,-0.5848,-0.5859,-0.5877,-0.5879,-0.5894,-0.5898,-0.5909,-0.5915,-0.5926,0,0]},{"header":{"parameterUnit":"m.s-1","parameterCategory":1,"la1":30.2992,"la2":30.254,"lo1":-89.0895,"lo2":-89.0443,"dy":0.0025,"dx":0.0025,"nx":19,"ny":19,"refTime":"2026-05-04T03:00:00:Z","depth":0,"parameterNumber":3,"parameterNumberName":"V-component_of_WINDS"},"data":[0,0,0,6.9533,6.9533,6.9557,6.9557,6.9592,6.9593,0,0,0,0,0,0,0,0,0,0,0,6.953,6.953,6.9533,6.9533,6.9557,6.9557,6.9592,6.9593,0,0,0,0,0,0,0,0,0,0,0,6.953,6.953,6.9531,6.9533,6.9557,6.9557,6.9592,6.9572,0,0,0,0,0,0,0,0,0,0,6.9549,6.955,6.953,6.9531,6.9534,6.9557,6.9557,6.9571,6.9574,6.9585,0,6.9596,0,6.9595,6.9596,6.9596,0,0,0,6.953,6.9548,6.9551,6.9531,6.9534,6.9557,6.9545,6.9573,6.9575,6.9588,6.9597,6.9598,6.9596,6.9596,6.9596,6.9673,6.9673,0,0,6.9529,6.9536,6.9549,6.9553,6.9551,6.9544,6.9546,6.9574,6.9584,6.9597,6.9598,6.9596,6.9596,6.9597,6.9672,6.9673,0,0,0,6.9527,6.9535,6.9537,6.9552,6.9556,6.9545,6.9547,6.9583,6.9583,6.9599,6.9597,6.9596,6.9597,6.9672,6.9673,6.9706,0,0,0,6.9526,6.9535,6.9537,6.9542,6.9555,6.957,6.9555,6.9581,6.9584,6.9597,6.9596,6.9597,6.9671,6.9672,6.9704,6.972,0,0,0,6.9527,6.9535,6.954,6.9542,6.9552,6.9569,6.957,6.9581,6.9583,6.9596,6.9597,6.9671,6.9672,6.9702,6.9717,6.9742,0,0,0,6.953,6.9568,6.954,6.9583,6.9552,6.959,6.957,6.9597,6.9613,6.9597,6.9671,6.9673,6.9701,6.9715,6.974,6.9765,6.9776,0,0,6.9582,6.9575,6.9599,6.9575,6.9619,6.9586,6.9635,6.9641,6.9635,6.966,6.9662,6.9704,6.9717,6.9742,6.9837,6.9846,0,0,0,6.9618,6.9636,6.9646,6.9662,6.9668,6.9675,6.9673,6.9676,6.9698,6.965,6.9721,6.9728,6.9742,6.9753,6.9761,6.9773,6.9678,6.9678,6.9678,6.9703,6.9694,6.9734,6.9728,6.9744,6.9742,6.9754,6.9756,6.9742,6.9759,6.9766,6.9825,6.9839,6.9845,6.9857,6.9779,6.9779,6.978,6.978,6.9779,6.9802,6.9784,6.9816,6.9806,6.9832,6.9833,6.9822,6.9845,6.9819,6.9831,6.9803,6.9855,6.9865,6.9782,6.9782,6.9781,6.9781,6.9781,6.9832,6.9842,6.9846,6.9868,6.9886,6.9879,6.9902,6.9892,6.9883,6.9895,6.9902,6.9901,6.9899,6.9899,6.99,6.99,6.99,6.99,6.99,6.9887,6.9889,6.9911,6.9922,6.9931,6.9942,6.9942,6.995,6.9957,6.9948,6.9948,6.9932,6.9862,6.9844,6.9903,6.9903,6.9902,6.9902,6.9902,6.9965,6.9946,6.9979,6.9989,7.0001,7.002,7.0008,7.0026,7.0032,7.0044,7.0026,6.9976,6.9967,6.996,6.9946,7.0028,7.0028,7.0028,7.0028,7.001,7.0006,7.0037,7.0053,7.0067,7.006,7.0097,7.0097,7.0095,7.0098,7.0085,7.0064,7.0059,7.0053,7.0045,7.0031,7.0133,7.0133,7.0133,7.0058,7.0055,7.0088,7.0086,7.0096,7.0104,7.0139,7.0157,7.015,7.0137,7.01,7.0095,7.0062,7.0052,7.0037,7.0025,6.9999,0,0]}]]